Location: Sungai Bunut
(2.6333°N, 113.7333°E)
Time: 08:12:39
(UTC+00:00)

Transit 2A - Pass Details

Date: 04 December 2023
Orbit: 599 x 953 km, 66.7° (Epoch: 04 March)

Event Time Altitude Azimuth Distance (km) Brightness Sun altitude
Rises 06:51:31 0° 207° (SSW) 3,532 10.1 44.4°
Reaches altitude 10° 06:54:09 10° 210° (SSW) 2,547 9.6 43.9°
Maximum altitude 06:59:58 61° 289° (WNW) 939 7.6 42.7°
Drops below altitude 10° 07:05:14 10° 9° (N) 2,309 8.3 41.6°
Sets 07:07:32 0° 13° (NNE) 3,178 8.9 41.1°
